Wind_Speed
27 27 28 28 29 29 30 31 33 33 33 33 33 33 34 35 35 35 36 37 37 38 39 40 40 41 42 42 43 43 44 45 46 46 46 46 46 46 46 46 47 48 48 49
27 27 28 28 28 28 28 29 30 32 32 33 33 33 33 35 35 36 36 37 38 38 39 39 39 40 41 41 41 41 42 43 44 44 44 45 45 45 45 45 46 47 48 48
26 26 28 28 28 28 29 29 30 30 31 32 32 32 33 35 35 35 36 36 36 36 38 38 38 38 39 39 39 40 41 41 42 43 43 43 43 44 44 44 45 45 46 46
26 27 27 28 29 29 29 30 30 31 31 32 32 32 32 33 34 35 35 35 35 36 36 36 37 37 37 38 38 39 39 40 40 41 41 42 42 43 43 44 44 44 44 44
27 28 28 28 28 28 28 29 30 31 31 32 33 33 33 33 33 34 34 33 34 34 34 35 35 34 34 35 36 38 39 40 40 40 40 40 41 41 42 43 43 43 42 42
28 29 29 28 28 28 29 29 30 30 30 31 32 33 33 33 33 33 33 34 34 33 34 34 34 34 33 34 35 36 38 39 40 39 39 40 40 41 41 42 41 41 41 41
28 29 29 29 29 29 29 30 30 30 31 31 31 33 33 33 32 33 33 33 34 34 33 33 33 34 34 34 35 36 36 37 38 39 39 39 39 40 40 40 40 41 41 40
28 29 29 29 29 29 29 30 31 31 31 32 32 33 33 33 33 33 33 33 34 33 33 33 32 33 33 34 35 36 36 36 36 37 38 38 38 38 38 39 39 39 39 39
29 29 29 30 30 30 30 31 31 32 32 32 33 33 34 33 33 33 33 33 33 33 33 33 32 33 33 34 34 35 36 36 36 36 36 37 37 38 38 38 38 38 38 38
29 29 30 30 31 31 31 32 33 33 33 33 34 34 34 34 34 34 33 33 33 32 32 32 33 33 33 33 34 34 34 35 36 36 36 36 36 37 37 38 37 37 37 37
30 30 31 31 32 32 32 33 33 34 34 35 35 34 34 33 33 33 32 32 33 33 32 32 32 32 33 33 34 34 34 34 35 35 35 36 36 36 36 36 37 37 37 37
30 30 30 30 31 32 33 33 34 34 34 34 34 34 34 33 33 33 32 31 31 31 31 30 30 31 31 32 33 34 34 34 34 34 34 34 35 35 35 36 37 37 37 37
30 30 30 31 31 32 33 33 33 32 33 33 33 34 34 34 33 33 32 32 31 30 30 30 30 30 31 31 32 32 32 33 33 33 34 34 34 35 35 35 35 36 36 36
29 29 30 30 30 31 31 32 32 32 32 32 33 33 33 33 32 32 32 32 32 31 30 30 30 30 30 30 30 30 30 30 31 32 33 33 33 33 34 34 34 34 35 35
27 27 27 28 29 30 30 31 31 31 30 30 31 31 31 30 30 30 31 31 31 31 30 30 30 29 29 28 28 28 28 29 29 29 30 30 30 31 31 32 32 32 33 33
26 27 27 27 28 29 29 30 30 29 29 29 28 28 28 28 27 28 29 29 29 29 30 29 29 29 28 28 27 27 27 27 28 28 28 28 29 29 29 29 30 30 30 31
26 26 26 27 27 28 29 29 28 28 27 27 27 27 27 27 27 27 28 28 28 28 29 29 29 28 27 27 27 27 27 27 27 27 27 28 28 28 28 29 29 29 29 29
26 26 27 27 27 28 28 28 27 27 27 26 26 27 27 27 27 27 26 27 27 27 27 27 27 27 27 27 27 27 26 26 27 27 27 27 28 28 28 28 28 28 29 29
27 27 28 28 28 27 27 27 27 27 27 27 27 27 27 26 26 26 26 26 26 26 26 26 26 26 26 26 26 26 26 27 27 27 28 28 28 28 28 28 28 28 28 29
28 28 28 28 28 28 27 27 27 27 28 27 27 26 26 25 25 25 25 25 24 25 25 25 25 25 26 26 27 27 27 28 28 28 28 28 28 28 28 28 29 29 29 30
29 29 28 28 28 28 27 27 28 28 28 27 27 26 25 25 25 25 24 24 24 24 24 25 25 25 25 26 27 27 28 28 28 28 28 28 28 28 29 29 30 30 30 30
29 29 29 29 28 28 28 28 28 28 27 27 27 26 25 25 25 25 24 24 24 24 24 25 25 25 25 25 26 27 28 28 28 28 28 28 29 29 29 29 29 30 30 30
30 30 29 29 29 28 28 28 28 28 28 27 27 26 25 25 25 25 24 25 25 24 24 24 24 24 24 25 26 27 27 28 28 29 29 29 29 29 29 29 29 29 30 29
30 30 30 30 30 29 29 29 29 28 28 27 27 27 26 26 25 25 25 25 24 24 23 24 24 24 25 25 26 26 27 28 29 29 29 30 30 30 29 29 29 29 29 29
30 31 31 30 30 29 29 29 28 28 27 27 27 27 27 26 26 26 26 25 25 25 25 25 25 26 26 26 26 27 27 28 28 29 29 30 30 30 30 30 29 29 28 28
30 30 30 30 29 29 28 28 28 27 27 27 27 27 27 26 26 26 26 26 26 26 26 26 26 26 26 27 27 27 28 28 29 29 29 29 29 29 29 29 29 28 28 28
29 29 29 29 29 28 28 27 27 27 27 27 27 26 26 26 26 26 26 25 26 26 26 26 26 26 26 26 26 26 27 27 28 28 28 28 28 29 29 28 28 28 28 28
Wind_Direction
291 290 289 285 282 281 279 278 276 275 275 276 275 275 275 275 275 275 274 273 272 271 269 268 267 266 265 265 264 263 262 261 260 259 259 258 257 257 258 259 260 261 262 263
290 289 288 286 284 281 279 278 277 275 275 276 278 277 277 277 277 276 275 274 272 272 271 269 268 266 265 264 264 263 262 262 260 259 259 258 257 257 257 259 260 261 262 263
293 290 289 288 287 284 281 279 278 277 277 277 277 277 277 276 276 276 275 275 274 273 272 270 270 268 266 264 263 263 262 262 261 260 259 259 258 258 258 259 259 260 262 263
296 295 293 293 290 288 286 283 280 279 278 279 280 280 279 279 278 278 277 277 276 275 274 272 270 268 266 264 263 262 261 261 261 261 260 260 259 259 259 259 259 261 262 263
297 296 295 294 293 291 289 287 285 283 281 279 279 280 282 283 282 281 280 279 277 276 274 272 269 267 266 265 263 261 261 261 261 261 261 261 260 260 260 259 260 261 262 262
298 297 297 297 294 292 290 288 287 285 284 282 282 281 281 282 284 284 282 280 277 276 275 271 269 267 266 265 264 263 262 262 261 261 261 262 262 262 261 260 260 261 261 263
297 296 296 297 295 293 290 290 289 287 285 284 283 284 283 283 283 284 283 281 279 277 275 272 270 267 266 265 265 265 264 263 262 262 263 263 263 263 262 261 260 260 262 263
297 297 297 298 296 293 291 290 288 288 286 284 283 283 284 284 283 283 283 281 278 277 275 273 270 268 268 267 266 266 266 266 265 264 264 263 263 263 262 261 262 263 264 263
297 297 297 296 295 293 291 290 289 288 287 286 284 283 283 283 283 282 282 281 279 276 275 273 271 270 269 268 267 266 265 266 266 266 266 266 265 264 264 263 262 263 264 264
294 294 294 294 293 292 291 290 289 289 288 287 285 284 284 284 284 283 282 281 280 278 276 274 273 272 271 269 268 268 266 266 267 268 268 267 267 266 264 263 262 263 263 263
294 294 293 293 293 292 292 291 290 289 289 288 287 286 285 285 284 283 282 281 280 279 278 277 275 273 272 270 268 268 268 268 267 268 268 267 267 266 265 263 262 262 263 263
296 295 295 295 295 294 294 293 292 292 291 290 288 287 286 286 285 283 282 280 280 279 278 277 276 275 274 272 270 269 269 268 268 268 268 268 266 265 264 263 262 263 263 264
296 296 297 297 297 296 296 295 294 294 293 292 291 289 288 287 286 284 282 281 279 277 276 276 277 277 275 273 272 271 270 270 269 268 268 267 266 265 265 263 262 263 263 265
297 298 298 298 298 298 298 297 295 295 295 294 293 291 290 288 286 284 282 280 278 277 276 275 275 276 275 274 272 271 271 270 269 268 268 267 266 266 266 265 265 264 264 264
301 301 300 300 301 301 300 299 298 298 297 297 295 293 292 290 287 285 282 280 279 278 277 276 275 274 274 274 273 272 271 270 269 268 267 268 268 267 267 266 265 264 264 264
304 303 302 301 302 301 301 301 301 301 300 299 297 295 293 291 290 288 285 283 281 279 278 277 276 275 274 273 272 271 271 271 270 269 269 270 269 268 267 266 266 264 264 265
306 305 304 303 303 303 303 303 303 303 302 302 300 298 295 293 293 292 289 287 284 282 280 278 276 274 273 271 271 271 271 272 271 270 270 270 270 269 267 266 266 264 264 265
308 308 307 306 305 304 304 304 304 304 304 303 302 301 298 295 294 294 292 290 287 285 283 280 278 275 272 271 270 270 269 270 271 271 272 271 270 270 268 267 266 265 265 265
309 308 307 307 306 305 304 304 305 305 305 304 303 303 302 299 296 294 293 291 288 287 285 283 281 277 273 270 269 269 269 269 270 272 272 271 271 269 268 266 266 265 265 267
311 310 308 308 307 306 305 304 305 305 305 304 304 304 303 301 298 296 294 292 290 288 288 286 283 281 276 272 269 268 268 269 270 271 271 271 270 269 267 267 267 266 266 267
311 311 310 309 308 306 306 306 305 305 305 305 304 304 303 302 300 298 296 294 292 291 290 289 286 282 278 274 271 270 269 269 270 271 271 271 271 270 269 268 268 268 268 268
311 311 311 310 308 306 305 305 305 305 306 306 305 304 303 302 300 299 298 295 294 293 292 290 288 284 280 277 273 272 272 272 272 272 272 272 271 271 270 269 268 268 268 268
310 310 310 311 309 307 306 305 305 305 304 304 304 303 302 302 301 300 299 297 296 295 293 291 289 287 284 281 277 274 274 274 274 273 272 272 272 271 271 270 268 267 267 268
311 310 310 310 309 307 305 305 305 305 305 304 303 302 301 301 301 300 299 299 298 297 295 293 290 289 288 285 282 279 277 276 275 274 273 272 271 270 270 270 269 269 269 269
311 311 311 310 309 309 307 306 305 305 305 305 304 302 301 300 300 299 299 299 298 297 296 293 291 290 289 287 284 282 280 278 277 275 274 273 271 270 270 269 269 268 268 268
311 311 311 311 311 310 309 307 306 305 305 305 304 303 301 300 300 299 299 299 298 297 296 295 293 292 290 288 286 284 281 279 278 276 275 274 272 270 269 268 267 267 266 267
311 312 312 312 312 311 310 309 308 307 306 305 305 304 302 301 300 300 299 299 298 297 296 297 296 295 292 290 288 286 284 282 280 278 276 274 273 271 269 267 267 267 266 266
Height
5548 5546 5543 5541 5540 5538 5536 5534 5532 5531 5530 5529 5528 5526 5525 5524 5523 5522 5521 5520 5519 5519 5518 5518 5517 5517 5517 5517 5517 5517 5518 5518 5519 5519 5520 5521 5522 5522 5523 5524 5524 5525 5525 5525
5541 5538 5535 5533 5532 5529 5527 5525 5523 5521 5521 5519 5518 5516 5514 5513 5512 5511 5510 5509 5507 5506 5506 5505 5505 5504 5504 5504 5504 5504 5504 5505 5505 5506 5506 5507 5508 5509 5509 5510 5511 5511 5511 5511
5533 5530 5527 5525 5524 5521 5518 5516 5514 5512 5512 5509 5508 5506 5505 5503 5502 5500 5498 5497 5496 5494 5493 5492 5492 5491 5490 5490 5490 5491 5491 5492 5492 5493 5493 5494 5494 5495 5496 5497 5497 5498 5498 5498
5524 5523 5520 5520 5514 5512 5509 5507 5505 5503 5501 5499 5498 5496 5494 5492 5490 5489 5487 5486 5484 5482 5481 5480 5479 5478 5478 5478 5478 5478 5479 5479 5479 5480 5480 5481 5481 5482 5483 5483 5484 5485 5485 5485
5516 5513 5511 5510 5506 5503 5500 5498 5496 5494 5492 5490 5488 5486 5484 5482 5479 5477 5476 5474 5472 5471 5470 5468 5467 5467 5466 5466 5466 5466 5467 5467 5467 5467 5468 5468 5469 5469 5470 5471 5471 5472 5472 5472
5508 5505 5502 5502 5498 5494 5492 5490 5487 5484 5482 5480 5478 5477 5476 5472 5469 5467 5465 5463 5462 5460 5459 5457 5456 5455 5455 5455 5455 5455 5455 5455 5455 5455 5456 5456 5457 5457 5457 5458 5459 5459 5460 5460
5501 5497 5494 5492 5488 5486 5485 5482 5478 5475 5472 5470 5468 5466 5464 5461 5459 5457 5455 5453 5451 5449 5448 5446 5445 5444 5444 5444 5444 5443 5443 5443 5444 5444 5444 5444 5445 5445 5445 5445 5446 5447 5447 5448
5493 5489 5488 5483 5479 5477 5475 5471 5468 5465 5463 5461 5458 5456 5453 5451 5449 5447 5444 5442 5440 5439 5437 5436 5434 5433 5433 5433 5433 5432 5432 5432 5432 5432 5432 5432 5432 5433 5433 5433 5434 5434 5435 5435
5485 5483 5478 5473 5470 5467 5464 5461 5458 5456 5453 5451 5449 5446 5444 5441 5439 5436 5434 5432 5430 5428 5426 5425 5423 5423 5422 5422 5421 5421 5421 5421 5421 5421 5421 5421 5421 5421 5421 5421 5422 5423 5423 5424
5475 5472 5468 5465 5461 5458 5455 5452 5449 5446 5443 5440 5438 5436 5433 5431 5428 5426 5423 5421 5419 5417 5416 5414 5413 5412 5411 5411 5410 5410 5410 5410 5410 5410 5410 5409 5409 5409 5409 5410 5410 5411 5412 5412
5466 5463 5459 5456 5452 5449 5446 5442 5439 5436 5433 5430 5427 5425 5422 5420 5417 5415 5413 5411 5409 5407 5405 5404 5402 5401 5400 5400 5399 5399 5399 5399 5399 5398 5398 5398 5398 5398 5398 5398 5398 5399 5400 5400
5457 5453 5450 5447 5443 5439 5436 5433 5429 5426 5423 5420 5417 5414 5411 5409 5406 5404 5402 5400 5398 5397 5395 5394 5392 5391 5390 5389 5389 5388 5388 5388 5387 5387 5387 5387 5387 5387 5386 5386 5386 5387 5387 5388
5447 5444 5440 5437 5433 5429 5426 5423 5419 5416 5413 5410 5406 5403 5401 5398 5396 5394 5392 5390 5388 5387 5385 5384 5382 5381 5380 5379 5378 5377 5377 5377 5376 5376 5376 5375 5375 5375 5375 5375 5375 5375 5376 5376
5438 5435 5431 5428 5424 5420 5417 5413 5410 5406 5403 5400 5396 5393 5390 5388 5385 5383 5381 5379 5378 5376 5375 5373 5372 5371 5369 5368 5367 5367 5366 5366 5365 5365 5365 5364 5364 5364 5364 5364 5364 5364 5364 5364
5429 5426 5423 5419 5415 5411 5408 5404 5401 5397 5393 5390 5386 5383 5380 5377 5375 5372 5370 5368 5367 5365 5364 5362 5361 5360 5359 5358 5357 5357 5356 5355 5355 5354 5354 5354 5354 5353 5353 5353 5353 5353 5353 5353
5422 5418 5414 5411 5407 5403 5399 5395 5392 5388 5384 5381 5377 5374 5370 5368 5365 5362 5360 5358 5356 5355 5353 5352 5351 5350 5349 5348 5347 5347 5346 5346 5345 5345 5344 5344 5344 5343 5343 5343 5343 5343 5343 5343
5414 5410 5407 5403 5399 5395 5391 5387 5383 5379 5375 5372 5368 5365 5362 5359 5356 5353 5350 5348 5346 5344 5343 5341 5341 5340 5339 5338 5338 5337 5337 5336 5335 5335 5335 5334 5334 5333 5333 5333 5333 5333 5332 5332
5406 5402 5398 5394 5390 5387 5383 5378 5374 5371 5367 5363 5360 5356 5353 5350 5347 5344 5341 5339 5336 5334 5332 5331 5330 5329 5328 5328 5328 5327 5327 5327 5326 5325 5325 5324 5324 5323 5323 5323 5323 5323 5323 5322
5398 5394 5390 5386 5382 5378 5374 5370 5367 5363 5359 5355 5351 5348 5344 5341 5338 5335 5332 5330 5328 5326 5324 5322 5320 5319 5318 5318 5317 5317 5317 5317 5316 5316 5315 5314 5314 5313 5313 5313 5313 5313 5313 5312
5391 5386 5382 5378 5374 5370 5366 5362 5358 5355 5351 5347 5343 5339 5336 5332 5329 5326 5323 5321 5318 5317 5315 5313 5311 5310 5308 5308 5307 5307 5307 5307 5307 5306 5305 5305 5304 5304 5303 5303 5303 5303 5303 5302
5383 5378 5374 5370 5366 5362 5358 5354 5350 5346 5342 5338 5334 5331 5327 5324 5321 5318 5315 5313 5310 5308 5306 5304 5302 5300 5299 5298 5298 5297 5297 5297 5296 5296 5295 5295 5294 5294 5293 5293 5293 5293 5292 5292
5374 5370 5366 5361 5357 5353 5349 5345 5341 5337 5334 5330 5326 5322 5319 5316 5313 5310 5307 5304 5302 5299 5297 5295 5293 5291 5289 5288 5288 5287 5287 5286 5286 5285 5285 5284 5284 5283 5283 5283 5282 5282 5282 5281
5366 5362 5357 5353 5349 5345 5341 5337 5333 5329 5325 5322 5318 5314 5311 5308 5305 5302 5299 5296 5293 5291 5289 5286 5284 5282 5281 5279 5278 5277 5277 5276 5275 5275 5274 5274 5273 5273 5273 5272 5272 5272 5271 5271
5357 5353 5349 5345 5340 5336 5332 5328 5324 5320 5317 5313 5309 5306 5303 5300 5297 5294 5291 5288 5285 5283 5280 5278 5276 5274 5272 5270 5269 5268 5267 5266 5265 5264 5264 5263 5263 5262 5262 5262 5261 5261 5261 5260
5349 5344 5340 5336 5332 5327 5323 5319 5316 5312 5308 5305 5301 5298 5295 5291 5289 5286 5283 5280 5277 5274 5272 5270 5267 5265 5263 5261 5259 5258 5257 5255 5255 5254 5253 5252 5252 5251 5251 5251 5251 5250 5250 5250
5340 5336 5332 5328 5323 5319 5315 5311 5307 5304 5300 5297 5293 5290 5287 5283 5280 5277 5275 5272 5269 5266 5264 5261 5259 5256 5254 5252 5250 5248 5247 5245 5244 5243 5242 5241 5241 5240 5240 5240 5240 5240 5240 5240
5332 5328 5324 5320 5315 5311 5307 5303 5299 5296 5292 5289 5286 5282 5279 5275 5272 5269 5266 5264 5261 5258 5255 5252 5250 5247 5245 5242 5240 5239 5237 5235 5234 5232 5231 5230 5230 5229 5229 5229 5229 5229 5229 5229